Location: ActonStarParty
(42.4766°N, 71.4538°W)
Time: 19:08:16
(UTC-04:00)

ATLAS 5 CENTAUR R/B - Visible Passes

Search period start: 23 July 2016 00:00
Search period end: 02 August 2016 00:00
Orbit: 246 x 14752 km, 60.8° (Epoch: 30 March)

Date Brightness Start Highest point End Pass type
(mag) Time Alt. Az. Time Alt. Az. Time Alt. Az.
23 Jul 7.5 01:19:19 10° ESE 01:56:18 28° ENE 03:11:06 10° NNE visible
24 Jul 8.5 00:13:01 10° ENE 00:30:20 11° NE 00:50:14 10° NE visible
24 Jul 6.9 03:56:49 10° S 04:31:47 72° ESE 06:37:30 10° NE visible
25 Jul 7.1 02:16:23 10° SSE 02:51:36 45° E 04:33:14 10° NE visible
26 Jul 7.6 00:44:12 10° ESE 01:20:22 24° ENE 02:26:34 10° NNE visible
26 Jul 6.9 05:01:55 10° SSW 05:42:12 87° WNW 07:57:32 10° ENE visible
27 Jul 6.9 03:17:51 10° S 03:52:02 66° E 05:53:31 10° NE visible
28 Jul 7.2 01:38:08 10° SE 02:13:36 40° ENE 03:48:23 10° NE visible
29 Jul 7.8 00:09:09 10° E 00:43:29 20° ENE 01:39:32 10° NNE visible
29 Jul 6.8 04:21:20 10° SSW 04:59:02 88° ESE 07:12:43 10° NE visible
30 Jul 6.9 02:38:11 12° S 03:11:23 60° E 05:07:39 10° NE visible
31 Jul 7.2 00:58:59 10° SE 01:34:42 35° ENE 03:01:36 10° NNE visible
31 Jul 7.9 23:35:16 10° ENE 00:05:40 16° NE 00:49:15 10° NNE visible
01 Aug 6.8 03:40:42 14° SSW 04:15:05 82° ESE 06:25:56 10° NE visible
